Torna al catalogo

KUIPER-00605

AttivoComunicazioniLEO
NORAD 69288·PAYLOAD·🇺🇸 United States

Lanciato May 29, 2026 da Vandenberg Space Force Base

Loading…

Prossimi Passaggi (prossime 24 ore)

TLE

AggiornatoSource: CelesTrak SupGP

Epoca: Sep 14, 2026, 22:20 UTC

1 69288C 26118X   26257.93090278 -.00001249  00000+0 -16351-3 0  2574
2 69288  51.9000   6.3043 0000436 104.3413 330.4665 14.79941041    13

Traccia KUIPER-00605 in tempo reale con AllMySat

Download on the App Store